Time,TemperatureF,DewpointF,PressureIn,WindDirection,WindDirectionDegrees,WindSpeedMPH,WindSpeedGustMPH,Humidity,HourlyPrecipIn,Conditions,Clouds,dailyrainin,SoftwareType,DateUTC
2013-01-25 00:00:00,15.0,-4.0,30.36,WNW,296,8.0,23.0,46,-99.99,,,-99.99,,2013-01-25 05:00:00,
2013-01-25 00:22:00,15.0,-4.0,30.36,WNW,296,8.0,23.0,46,-99.99,,,-99.99,,2013-01-25 05:22:00,
2013-01-25 00:32:00,15.0,-4.0,30.36,WNW,296,8.0,23.0,46,-99.99,,,-99.99,,2013-01-25 05:32:00,
2013-01-25 00:43:00,15.0,-4.0,30.36,WNW,296,8.0,23.0,46,-99.99,,,-99.99,,2013-01-25 05:43:00,
2013-01-25 00:52:00,15.0,-4.0,30.36,WNW,296,8.0,23.0,46,-99.99,,,-99.99,,2013-01-25 05:52:00,
2013-01-25 01:00:00,14.0,-3.0,30.36,NW,312,5.0,19.0,50,-99.99,,,-99.99,,2013-01-25 06:00:00,
2013-01-25 01:22:00,14.0,-3.0,30.36,NW,312,5.0,19.0,50,-99.99,,,-99.99,,2013-01-25 06:22:00,
2013-01-25 01:32:00,14.0,-3.0,30.36,NW,312,5.0,19.0,50,-99.99,,,-99.99,,2013-01-25 06:32:00,
2013-01-25 01:42:00,14.0,-3.0,30.36,NW,312,5.0,19.0,50,-99.99,,,-99.99,,2013-01-25 06:42:00,
2013-01-25 01:52:00,14.0,-3.0,30.36,NW,312,5.0,19.0,50,-99.99,,,-99.99,,2013-01-25 06:52:00,
2013-01-25 02:00:00,14.0,-2.0,30.39,NW,320,6.0,16.0,53,-99.99,,,-99.99,,2013-01-25 07:00:00,
2013-01-25 02:22:00,14.0,-2.0,30.39,NW,320,6.0,16.0,53,-99.99,,,-99.99,,2013-01-25 07:22:00,
2013-01-25 02:32:00,14.0,-2.0,30.39,NW,320,6.0,16.0,53,-99.99,,,-99.99,,2013-01-25 07:32:00,
2013-01-25 02:42:00,14.0,-2.0,30.39,NW,320,6.0,16.0,53,-99.99,,,-99.99,,2013-01-25 07:42:00,
2013-01-25 02:52:00,14.0,-2.0,30.39,NW,320,6.0,16.0,53,-99.99,,,-99.99,,2013-01-25 07:52:00,
2013-01-25 03:00:00,14.0,-2.0,30.36,WNW,288,2.0,18.0,53,-99.99,,,-99.99,,2013-01-25 08:00:00,
2013-01-25 03:22:00,14.0,-2.0,30.36,WNW,288,2.0,18.0,53,-99.99,,,-99.99,,2013-01-25 08:22:00,
2013-01-25 03:32:00,14.0,-2.0,30.36,WNW,288,2.0,18.0,53,-99.99,,,-99.99,,2013-01-25 08:32:00,
2013-01-25 03:42:00,14.0,-2.0,30.36,WNW,288,2.0,18.0,53,-99.99,,,-99.99,,2013-01-25 08:42:00,
2013-01-25 03:52:00,14.0,-2.0,30.36,WNW,288,2.0,18.0,53,-99.99,,,-99.99,,2013-01-25 08:52:00,
2013-01-25 05:00:00,13.0,-2.0,30.39,West,269,4.0,13.0,57,-99.99,,,-99.99,,2013-01-25 10:00:00,
2013-01-25 05:22:00,13.0,-2.0,30.39,West,269,4.0,13.0,57,-99.99,,,-99.99,,2013-01-25 10:22:00,
2013-01-25 05:32:00,13.0,-2.0,30.39,West,269,4.0,13.0,57,-99.99,,,-99.99,,2013-01-25 10:32:00,
2013-01-25 05:42:00,13.0,-2.0,30.39,West,269,4.0,13.0,57,-99.99,,,-99.99,,2013-01-25 10:42:00,
2013-01-25 05:52:00,13.0,-2.0,30.39,West,269,4.0,13.0,57,-99.99,,,-99.99,,2013-01-25 10:52:00,
2013-01-25 06:00:00,12.0,-2.0,30.39,West,266,4.0,9.0,59,-99.99,,,-99.99,,2013-01-25 11:00:00,
2013-01-25 06:22:00,12.0,-2.0,30.39,West,266,4.0,9.0,59,-99.99,,,-99.99,,2013-01-25 11:22:00,
2013-01-25 06:33:00,12.0,-2.0,30.39,West,266,4.0,9.0,59,-99.99,,,-99.99,,2013-01-25 11:33:00,
2013-01-25 06:42:00,12.0,-2.0,30.39,West,266,4.0,9.0,59,-99.99,,,-99.99,,2013-01-25 11:42:00,
2013-01-25 06:52:00,12.0,-2.0,30.39,West,266,4.0,9.0,59,-99.99,,,-99.99,,2013-01-25 11:52:00,
2013-01-25 07:00:00,13.0,-1.0,30.39,WNW,298,5.0,9.0,60,-99.99,,,-99.99,,2013-01-25 12:00:00,
2013-01-25 07:22:00,13.0,-1.0,30.39,WNW,298,5.0,9.0,60,-99.99,,,-99.99,,2013-01-25 12:22:00,
2013-01-25 07:33:00,13.0,-1.0,30.39,WNW,298,5.0,9.0,60,-99.99,,,-99.99,,2013-01-25 12:33:00,
2013-01-25 07:42:00,13.0,-1.0,30.39,WNW,298,5.0,9.0,60,-99.99,,,-99.99,,2013-01-25 12:42:00,
2013-01-25 07:53:00,13.0,-1.0,30.39,WNW,298,5.0,9.0,60,-99.99,,,-99.99,,2013-01-25 12:53:00,
2013-01-25 08:00:00,13.0,0.0,30.36,SW,218,0.0,8.0,58,-99.99,,,-99.99,,2013-01-25 13:00:00,
2013-01-25 08:22:00,13.0,0.0,30.36,SW,218,0.0,8.0,58,-99.99,,,-99.99,,2013-01-25 13:22:00,
2013-01-25 08:33:00,13.0,0.0,30.36,SW,218,0.0,8.0,58,-99.99,,,-99.99,,2013-01-25 13:33:00,
2013-01-25 08:43:00,13.0,0.0,30.36,SW,218,0.0,8.0,58,-99.99,,,-99.99,,2013-01-25 13:43:00,
2013-01-25 08:53:00,13.0,0.0,30.36,SW,218,0.0,8.0,58,-99.99,,,-99.99,,2013-01-25 13:53:00,
2013-01-25 09:00:00,15.0,0.0,30.36,North,6,4.0,10.0,56,-99.99,,,-99.99,,2013-01-25 14:00:00,
2013-01-25 09:23:00,15.0,0.0,30.36,North,6,4.0,10.0,56,-99.99,,,-99.99,,2013-01-25 14:23:00,
2013-01-25 09:33:00,15.0,0.0,30.36,North,6,4.0,10.0,56,-99.99,,,-99.99,,2013-01-25 14:33:00,
2013-01-25 09:42:00,15.0,0.0,30.36,North,6,4.0,10.0,56,-99.99,,,-99.99,,2013-01-25 14:42:00,
2013-01-25 09:53:00,15.0,0.0,30.36,North,6,4.0,10.0,56,-99.99,,,-99.99,,2013-01-25 14:53:00,
2013-01-25 10:00:00,17.0,1.0,30.39,WNW,284,2.0,12.0,52,-99.99,,,-99.99,,2013-01-25 15:00:00,
2013-01-25 10:22:00,17.0,1.0,30.39,WNW,284,2.0,12.0,52,-99.99,,,-99.99,,2013-01-25 15:22:00,
2013-01-25 10:33:00,17.0,1.0,30.39,WNW,284,2.0,12.0,52,-99.99,,,-99.99,,2013-01-25 15:33:00,
2013-01-25 10:43:00,17.0,1.0,30.39,WNW,284,2.0,12.0,52,-99.99,,,-99.99,,2013-01-25 15:43:00,
2013-01-25 10:53:00,17.0,1.0,30.39,WNW,284,2.0,12.0,52,-99.99,,,-99.99,,2013-01-25 15:53:00,
2013-01-25 11:00:00,19.0,0.0,30.36,WNW,290,0.0,9.0,46,-99.99,,,-99.99,,2013-01-25 16:00:00,
2013-01-25 11:23:00,19.0,0.0,30.36,WNW,290,0.0,9.0,46,-99.99,,,-99.99,,2013-01-25 16:23:00,
2013-01-25 11:33:00,19.0,0.0,30.36,WNW,290,0.0,9.0,46,-99.99,,,-99.99,,2013-01-25 16:33:00,
2013-01-25 11:43:00,19.0,0.0,30.36,WNW,290,0.0,9.0,46,-99.99,,,-99.99,,2013-01-25 16:43:00,
2013-01-25 11:53:00,19.0,0.0,30.36,WNW,290,0.0,9.0,46,-99.99,,,-99.99,,2013-01-25 16:53:00,
2013-01-25 12:00:00,20.0,-1.0,30.30,WSW,251,0.0,7.0,42,-99.99,,,-99.99,,2013-01-25 17:00:00,
2013-01-25 12:22:00,20.0,-1.0,30.30,WSW,251,0.0,7.0,42,-99.99,,,-99.99,,2013-01-25 17:22:00,
2013-01-25 12:33:00,20.0,-1.0,30.30,WSW,251,0.0,7.0,42,-99.99,,,-99.99,,2013-01-25 17:33:00,
2013-01-25 12:43:00,20.0,-1.0,30.30,WSW,251,0.0,7.0,42,-99.99,,,-99.99,,2013-01-25 17:43:00,
2013-01-25 12:53:00,20.0,-1.0,30.30,WSW,251,0.0,7.0,42,-99.99,,,-99.99,,2013-01-25 17:53:00,
2013-01-25 13:00:00,21.0,-1.0,30.27,North,7,0.0,7.0,40,-99.99,,,-99.99,,2013-01-25 18:00:00,
2013-01-25 13:24:00,21.0,-1.0,30.27,North,7,0.0,7.0,40,-99.99,,,-99.99,,2013-01-25 18:24:00,
2013-01-25 13:33:00,21.0,-1.0,30.27,North,7,0.0,7.0,40,-99.99,,,-99.99,,2013-01-25 18:33:00,
2013-01-25 13:43:00,21.0,-1.0,30.27,North,7,0.0,7.0,40,-99.99,,,-99.99,,2013-01-25 18:43:00,
2013-01-25 13:53:00,21.0,-1.0,30.27,North,7,0.0,7.0,40,-99.99,,,-99.99,,2013-01-25 18:53:00,
2013-01-25 14:00:00,22.0,-1.0,30.21,SSW,202,2.0,6.0,37,-99.99,,,-99.99,,2013-01-25 19:00:00,
2013-01-25 14:23:00,22.0,-1.0,30.21,SSW,202,2.0,6.0,37,-99.99,,,-99.99,,2013-01-25 19:23:00,
2013-01-25 14:33:00,22.0,-1.0,30.21,SSW,202,2.0,6.0,37,-99.99,,,-99.99,,2013-01-25 19:33:00,
2013-01-25 14:42:00,22.0,-1.0,30.21,SSW,202,2.0,6.0,37,-99.99,,,-99.99,,2013-01-25 19:42:00,
2013-01-25 14:53:00,22.0,-1.0,30.21,SSW,202,2.0,6.0,37,-99.99,,,-99.99,,2013-01-25 19:53:00,
2013-01-25 15:00:00,23.0,-1.0,30.18,SW,215,7.0,7.0,35,-99.99,,,-99.99,,2013-01-25 20:00:00,
2013-01-25 15:23:00,23.0,-1.0,30.18,SW,215,7.0,7.0,35,-99.99,,,-99.99,,2013-01-25 20:23:00,
2013-01-25 15:33:00,23.0,-1.0,30.18,SW,215,7.0,7.0,35,-99.99,,,-99.99,,2013-01-25 20:33:00,
2013-01-25 15:43:00,23.0,-1.0,30.18,SW,215,7.0,7.0,35,-99.99,,,-99.99,,2013-01-25 20:43:00,
2013-01-25 15:53:00,23.0,-1.0,30.18,SW,215,7.0,7.0,35,-99.99,,,-99.99,,2013-01-25 20:53:00,
2013-01-25 16:00:00,23.0,-1.0,30.18,WSW,247,2.0,7.0,37,-99.99,,,-99.99,,2013-01-25 21:00:00,
2013-01-25 16:23:00,23.0,-1.0,30.18,WSW,247,2.0,7.0,37,-99.99,,,-99.99,,2013-01-25 21:23:00,
2013-01-25 16:33:00,23.0,-1.0,30.18,WSW,247,2.0,7.0,37,-99.99,,,-99.99,,2013-01-25 21:33:00,
2013-01-25 16:43:00,23.0,-1.0,30.18,WSW,247,2.0,7.0,37,-99.99,,,-99.99,,2013-01-25 21:43:00,
2013-01-25 16:52:00,23.0,-1.0,30.18,WSW,247,2.0,7.0,37,-99.99,,,-99.99,,2013-01-25 21:52:00,
2013-01-25 17:00:00,23.0,3.0,30.15,WSW,251,4.0,7.0,42,-99.99,,,-99.99,,2013-01-25 22:00:00,
2013-01-25 17:23:00,23.0,3.0,30.15,WSW,251,4.0,7.0,42,-99.99,,,-99.99,,2013-01-25 22:23:00,
2013-01-25 17:33:00,23.0,3.0,30.15,WSW,251,4.0,7.0,42,-99.99,,,-99.99,,2013-01-25 22:33:00,
2013-01-25 17:42:00,23.0,3.0,30.15,WSW,251,4.0,7.0,42,-99.99,,,-99.99,,2013-01-25 22:42:00,
2013-01-25 17:53:00,23.0,3.0,30.15,WSW,251,4.0,7.0,42,-99.99,,,-99.99,,2013-01-25 22:53:00,
2013-01-25 18:00:00,20.0,14.0,30.12,SW,231,2.0,15.0,85,-99.99,,,-99.99,,2013-01-25 23:00:00,
2013-01-25 18:22:00,20.0,14.0,30.12,SW,231,2.0,15.0,85,-99.99,,,-99.99,,2013-01-25 23:22:00,
2013-01-25 18:32:00,20.0,14.0,30.12,SW,231,2.0,15.0,85,-99.99,,,-99.99,,2013-01-25 23:32:00,
2013-01-25 18:42:00,20.0,14.0,30.12,SW,231,2.0,15.0,85,-99.99,,,-99.99,,2013-01-25 23:42:00,
2013-01-25 18:53:00,20.0,14.0,30.12,SW,231,2.0,15.0,85,-99.99,,,-99.99,,2013-01-25 23:53:00,
2013-01-25 19:00:00,19.0,15.0,30.09,NW,315,1.0,5.0,87,-99.99,,,-99.99,,2013-01-26 00:00:00,
2013-01-25 19:22:00,19.0,15.0,30.09,NW,315,1.0,5.0,87,-99.99,,,-99.99,,2013-01-26 00:22:00,
2013-01-25 19:33:00,19.0,15.0,30.09,NW,315,1.0,5.0,87,-99.99,,,-99.99,,2013-01-26 00:33:00,
2013-01-25 19:42:00,19.0,15.0,30.09,NW,315,1.0,5.0,87,-99.99,,,-99.99,,2013-01-26 00:42:00,
2013-01-25 19:53:00,19.0,15.0,30.09,NW,315,1.0,5.0,87,-99.99,,,-99.99,,2013-01-26 00:53:00,
2013-01-25 20:00:00,19.0,15.0,30.09,WSW,258,5.0,5.0,89,-99.99,,,-99.99,,2013-01-26 01:00:00,
2013-01-25 20:22:00,19.0,15.0,30.09,WSW,258,5.0,5.0,89,-99.99,,,-99.99,,2013-01-26 01:22:00,
2013-01-25 20:32:00,19.0,15.0,30.09,WSW,258,5.0,5.0,89,-99.99,,,-99.99,,2013-01-26 01:32:00,
2013-01-25 20:42:00,19.0,15.0,30.09,WSW,258,5.0,5.0,89,-99.99,,,-99.99,,2013-01-26 01:42:00,
2013-01-25 20:52:00,19.0,15.0,30.09,WSW,258,5.0,5.0,89,-99.99,,,-99.99,,2013-01-26 01:52:00,
2013-01-25 21:00:00,19.0,15.0,30.06,West,274,0.0,5.0,89,-99.99,,,-99.99,,2013-01-26 02:00:00,
2013-01-25 21:22:00,19.0,15.0,30.06,West,274,0.0,5.0,89,-99.99,,,-99.99,,2013-01-26 02:22:00,
2013-01-25 21:32:00,19.0,15.0,30.06,West,274,0.0,5.0,89,-99.99,,,-99.99,,2013-01-26 02:32:00,
2013-01-25 21:42:00,19.0,15.0,30.06,West,274,0.0,5.0,89,-99.99,,,-99.99,,2013-01-26 02:42:00,
2013-01-25 21:52:00,19.0,15.0,30.06,West,274,0.0,5.0,89,-99.99,,,-99.99,,2013-01-26 02:52:00,
2013-01-25 22:00:00,18.0,13.0,30.06,West,281,2.0,6.0,87,-99.99,,,-99.99,,2013-01-26 03:00:00,
2013-01-25 22:22:00,18.0,13.0,30.06,West,281,2.0,6.0,87,-99.99,,,-99.99,,2013-01-26 03:22:00,
2013-01-25 22:32:00,18.0,13.0,30.06,West,281,2.0,6.0,87,-99.99,,,-99.99,,2013-01-26 03:32:00,
2013-01-25 22:43:00,18.0,13.0,30.06,West,281,2.0,6.0,87,-99.99,,,-99.99,,2013-01-26 03:43:00,
2013-01-25 22:52:00,18.0,13.0,30.06,West,281,2.0,6.0,87,-99.99,,,-99.99,,2013-01-26 03:52:00,
2013-01-25 23:00:00,15.0,10.0,30.06,NNW,340,0.0,5.0,87,-99.99,,,-99.99,,2013-01-26 04:00:00,
2013-01-25 23:21:00,15.0,10.0,30.06,NNW,340,0.0,5.0,87,-99.99,,,-99.99,,2013-01-26 04:21:00,
2013-01-25 23:32:00,15.0,10.0,30.06,NNW,340,0.0,5.0,87,-99.99,,,-99.99,,2013-01-26 04:32:00,
2013-01-25 23:43:00,15.0,10.0,30.06,NNW,340,0.0,5.0,87,-99.99,,,-99.99,,2013-01-26 04:43:00,
2013-01-25 23:52:00,15.0,10.0,30.06,NNW,340,0.0,5.0,87,-99.99,,,-99.99,,2013-01-26 04:52:00,